This is the latest recevied weather packets stored in our database for station/object N3FAA. If no packets are shown the sender has not sent any weather packets the latest 1 day(s).
| Time | Temp. | Humidity | Pressure | Rain* | Wind** | Luminosity | Snow |
|---|---|---|---|---|---|---|---|
| 1778038088 | 12.22° C | 66% | 1011.6 hPa | 0 mm | 3.13 m/s, 237° | 0 W/m² | - |
| 1778037785 | 12.22° C | 66% | 1011.5 hPa | 0 mm | 0 m/s | 0 W/m² | - |
| 1778037482 | 12.22° C | 66% | 1011.3 hPa | 0 mm | 0 m/s | 0 W/m² | - |
| 1778037179 | 12.22° C | 66% | 1011.4 hPa | 0 mm | 0 m/s | 0 W/m² | - |
| 1778036877 | 12.22° C | 66% | 1011 hPa | 0 mm | 0 m/s | 0 W/m² | - |
| 1778036574 | 12.22° C | 65% | 1011.3 hPa | 0 mm | 0 m/s | 0 W/m² | - |
| 1778036271 | 12.78° C | 64% | 1011.4 hPa | 0 mm | 4.02 m/s, 244° | 0 W/m² | - |
| 1778035967 | 12.78° C | 64% | 1011.3 hPa | 0 mm | 2.68 m/s, 234° | 0 W/m² | - |
| 1778035665 | 12.78° C | 64% | 1011 hPa | 0 mm | 3.13 m/s, 247° | 1 W/m² | - |
| 1778035361 | 12.78° C | 64% | 1010.9 hPa | 0 mm | 3.13 m/s, 251° | 2 W/m² | - |
| 1778035057 | 12.78° C | 63% | 1011 hPa | 0 mm | 4.92 m/s, 241° | 4 W/m² | - |
| 1778034755 | 12.78° C | 63% | 1011 hPa | 0 mm | 0.89 m/s, 232° | 7 W/m² | - |
| 1778034451 | 13.33° C | 63% | 1010.6 hPa | 0 mm | 4.92 m/s, 230° | 11 W/m² | - |
| 1778034149 | 13.33° C | 62% | 1010.9 hPa | 0 mm | 3.13 m/s, 253° | 15 W/m² | - |
| 1778033847 | 13.89° C | 61% | 1010.5 hPa | 0 mm | 4.47 m/s, 252° | 21 W/m² | - |
| 1778033544 | 14.44° C | 60% | 1010.7 hPa | 0 mm | 4.92 m/s, 245° | 25 W/m² | - |
| 1778033240 | 14.44° C | 55% | 1010.7 hPa | 0 mm | 4.47 m/s, 297° | 29 W/m² | - |
| 1778032938 | 15° C | 55% | 1010.4 hPa | 0 mm | 3.58 m/s, 239° | 35 W/m² | - |
| 1778032636 | 15° C | 55% | 1010.7 hPa | 0 mm | 4.02 m/s, 246° | 40 W/m² | - |
| 1778032333 | 15° C | 56% | 1010.5 hPa | 0 mm | 4.02 m/s, 280° | 46 W/m² | - |
| 1778032030 | 15° C | 56% | 1010.3 hPa | 0 mm | 4.92 m/s, 258° | 58 W/m² | - |
| 1778031726 | 15° C | 56% | 1010.2 hPa | 0 mm | 4.92 m/s, 255° | 82 W/m² | - |
| 1778031424 | 15° C | 57% | 1010.1 hPa | 0 mm | 4.02 m/s, 247° | 96 W/m² | - |
| 1778031121 | 15° C | 56% | 1010.3 hPa | 0 mm | 4.47 m/s, 223° | 111 W/m² | - |
| 1778030817 | 15.56° C | 55% | 1010.4 hPa | 0 mm | 5.36 m/s, 253° | 127 W/m² | - |
* Rain latest hour (hover to see other rain measurements)
** Current wind speed in m/s (hover to see current wind gust speed)